DECAYED

STARLINK-1360, 45588 (Decayed)

Orbit data source: Space-Track

STARLINK-1360, 45588 was a payload satellite owned by SpaceX/Seattle (US) in LEO that was launched on Wed, 22 Apr 2020 UTC via an FALCON 9 launch vehicle from the Air Force Eastern Test Range (AFETR). Payload-class satellites include a variety of spacecraft equipped with specific instruments for various scientific and technological missions. These include communications satellites like Starlink; space stations such as the ISS; scientific satellites like the Hubble; Earth observation satellites from companies like Planet Labs, Umbra, and HawkEye 360; GPS; miniature CubeSats for education and research; and military/defense satellites.

Not visible in the next 10 days
Identifier
45588, 2020-025BK
Orbit
Decayed
Country
Flag of USUS
Related business
Manufacturer
SpaceX/Seattle
Mission
Decayed Commercial Communications
Bus & Motor
STARLINK, Unknown motor
Mass
260 kg wet, ~248 kg dry
Launch date (UTC)
2020-04-22 (6 years ago)
Launch vehicle
FALCON 9
Launch site
Air Force Eastern Test Range (AFETR)
Object type
Payload
Rocket body
Debris
Shape & HBR
Box + 1 Pan, 10.1 m
Radar Cross Section
13.562 m², Large (>1 m²)

Expand to show TLE details & history
Last TLE update: 9 months ago

TLE from 9 months ago
0 STARLINK-1360
1 45588U 20025BK  25365.13560596  .12494271  11941-4  36026-2 0  9994
2 45588  53.0252 253.6542 0004395 216.8863 143.1876 16.26707245317002
Epoch: 2025-12-31T03:15Z
TLE epoch observation values (Epoch: 2025-12-31T03:15:16.354Z)
Latitude
-0.00003°
Longitude
105.02716°
Altitude
204.641 km
Speed
7.784 km/s
True Right ascension
16h 54m 37s
True Declination
0° 00' 00"
Sunlit
Object was in daylight at epoch
Visualization orbit readout
Latitude
Unknown
Longitude
Unknown
Altitude
Unknown
Speed
Unknown
Apparent Right ascension
Unknown
Apparent Declination
Unknown
Sunlit
N/A
Visualization observer readout
Local Sidereal Time
04:56:27
Azimuth
Unknown
Elevation
Unknown
Doppler factor
Unknown
Orbital elements
Apogee altitude
204.585 km
Perigee altitude
198.801 km
Semi-major axis
6,579.83 km
Eccentricity
0.00044
Inclination
53.0252°
RAAN
253.6542°
Arg. of periapsis
216.8863°
True anomaly
143.21776°
Mean anomaly
143.1876°
Eccentric anomaly
143.20268°
Mean motion
4.0665 °/min
Orbital period
88.53 mins
BSTAR
0.0036026
Loading maneuver chart data...
Computing Atmospheric mass density...

Documentation

Showing up to 5 results
|